Temp
-5 -5 -5 -5 -5 -5 -5 -5 -5 -6 -6 -6 -6 -6 -6 -6 -6 -6 -6 -6 -6 -6 -6 -6 -6 -7 -7 -7 -7 -7 -7 -8 -8 -8 -8 -8 -8 -8 -8 -8 -9 -9
-6 -6 -6 -6 -6 -6 -6 -6 -7 -7 -7 -7 -7 -7 -7 -7 -7 -7 -7 -6 -6 -6 -6 -7 -7 -7 -7 -7 -7 -7 -7 -8 -8 -8 -8 -8 -8 -8 -8 -8 -8 -9
-7 -7 -7 -7 -7 -7 -7 -8 -8 -8 -8 -8 -8 -8 -8 -8 -8 -8 -8 -8 -8 -8 -8 -8 -8 -8 -8 -8 -8 -7 -7 -7 -8 -8 -8 -8 -8 -8 -8 -8 -9 -9
-8 -8 -8 -8 -8 -8 -8 -9 -9 -9 -9 -9 -9 -9 -9 -9 -9 -9 -9 -9 -9 -9 -9 -9 -9 -9 -9 -9 -8 -7 -7 -7 -8 -8 -9 -9 -8 -8 -8 -9 -9 -9
-9 -9 -9 -9 -9 -9 -9 -10 -10 -10 -10 -10 -10 -10 -10 -10 -10 -10 -10 -10 -10 -10 -10 -10 -10 -10 -9 -9 -8 -8 -8 -8 -8 -8 -9 -9 -9 -9 -9 -9 -9 -10
-10 -10 -10 -10 -10 -10 -10 -10 -10 -11 -11 -11 -11 -11 -11 -11 -11 -11 -11 -11 -11 -11 -11 -10 -10 -10 -9 -9 -9 -8 -8 -8 -9 -9 -9 -9 -9 -10 -10 -10 -10 -10
-10 -10 -10 -11 -11 -11 -11 -11 -11 -11 -11 -11 -11 -12 -12 -12 -12 -12 -12 -12 -11 -11 -11 -11 -10 -10 -10 -10 -10 -10 -10 -10 -10 -10 -10 -10 -11 -11 -11 -11 -11 -11
-10 -11 -11 -11 -11 -11 -11 -11 -12 -12 -12 -12 -12 -12 -12 -12 -12 -12 -12 -12 -12 -11 -11 -11 -11 -11 -11 -11 -11 -11 -11 -11 -11 -11 -11 -11 -11 -11 -11 -11 -11 -11
-11 -11 -11 -11 -11 -11 -11 -12 -12 -12 -12 -12 -12 -12 -12 -12 -12 -12 -12 -12 -12 -12 -11 -11 -11 -11 -11 -12 -12 -11 -11 -11 -12 -12 -12 -12 -12 -12 -11 -11 -11 -11
-12 -12 -12 -12 -12 -12 -12 -12 -12 -12 -12 -12 -12 -12 -12 -12 -12 -13 -13 -12 -12 -12 -12 -12 -12 -12 -12 -12 -12 -12 -12 -12 -12 -12 -12 -12 -12 -12 -12 -12 -12 -12
-12 -12 -12 -12 -12 -12 -12 -12 -12 -12 -12 -12 -12 -12 -12 -12 -12 -12 -13 -13 -13 -13 -12 -12 -12 -12 -12 -12 -12 -12 -12 -12 -12 -12 -12 -12 -12 -12 -12 -12 -12 -12
-13 -13 -13 -13 -13 -13 -13 -13 -13 -13 -13 -13 -13 -13 -13 -13 -13 -13 -13 -13 -13 -13 -13 -13 -13 -13 -13 -13 -13 -13 -13 -13 -13 -13 -13 -12 -12 -12 -12 -12 -12 -12
-14 -14 -14 -14 -14 -14 -14 -14 -14 -14 -14 -14 -14 -13 -13 -13 -13 -14 -13 -13 -13 -13 -13 -13 -13 -13 -13 -13 -13 -13 -13 -13 -13 -13 -13 -13 -13 -13 -13 -13 -13 -13
-14 -14 -14 -14 -14 -14 -14 -14 -14 -14 -14 -14 -14 -14 -14 -14 -14 -14 -14 -14 -14 -14 -14 -14 -14 -14 -14 -14 -14 -13 -13 -13 -13 -13 -13 -13 -13 -13 -13 -13 -13 -13
-15 -15 -15 -15 -15 -15 -15 -15 -15 -15 -15 -15 -15 -15 -15 -15 -14 -14 -14 -14 -14 -14 -14 -14 -14 -14 -14 -14 -14 -14 -14 -14 -14 -14 -14 -14 -14 -14 -14 -14 -14 -14
-16 -16 -16 -16 -15 -15 -15 -15 -15 -15 -15 -15 -15 -15 -15 -15 -15 -15 -15 -15 -15 -15 -15 -15 -15 -15 -15 -15 -15 -15 -15 -15 -15 -14 -14 -14 -14 -14 -14 -14 -14 -14
-16 -16 -16 -16 -16 -16 -16 -16 -16 -16 -16 -16 -16 -16 -16 -16 -16 -15 -15 -15 -15 -15 -15 -15 -15 -15 -15 -15 -15 -15 -15 -15 -15 -15 -15 -15 -15 -15 -15 -15 -14 -14
-17 -17 -17 -17 -17 -16 -16 -16 -16 -16 -16 -16 -16 -16 -16 -16 -16 -16 -16 -16 -16 -16 -16 -16 -16 -16 -16 -16 -16 -16 -16 -16 -15 -15 -15 -15 -15 -15 -15 -15 -15 -15
-17 -17 -17 -17 -17 -17 -17 -17 -17 -17 -16 -16 -16 -16 -16 -16 -16 -16 -17 -17 -17 -16 -16 -16 -16 -16 -16 -16 -16 -16 -16 -16 -16 -16 -16 -16 -16 -16 -15 -15 -15 -15
-18 -18 -18 -18 -18 -18 -18 -18 -18 -17 -17 -17 -17 -17 -17 -17 -17 -17 -17 -17 -17 -17 -17 -17 -17 -17 -17 -17 -17 -16 -16 -16 -16 -16 -16 -16 -16 -16 -16 -16 -16 -16
-18 -18 -18 -18 -18 -18 -18 -18 -18 -18 -18 -18 -18 -18 -18 -18 -17 -17 -17 -17 -17 -17 -17 -17 -17 -17 -17 -17 -17 -17 -17 -17 -17 -16 -16 -16 -16 -16 -16 -16 -16 -16
-19 -19 -19 -19 -19 -19 -19 -19 -19 -19 -19 -19 -19 -19 -19 -18 -18 -18 -18 -18 -18 -18 -17 -17 -18 -18 -18 -18 -18 -18 -17 -17 -17 -17 -17 -16 -16 -16 -16 -16 -16 -16
-20 -20 -20 -20 -20 -19 -19 -19 -19 -19 -19 -19 -19 -19 -19 -19 -19 -19 -19 -18 -18 -18 -18 -18 -18 -18 -18 -18 -18 -18 -18 -18 -18 -18 -17 -17 -17 -17 -17 -16 -17 -17
-20 -20 -20 -20 -20 -20 -20 -19 -19 -19 -19 -19 -19 -19 -19 -19 -19 -19 -19 -19 -19 -19 -18 -18 -18 -18 -18 -18 -18 -18 -18 -18 -18 -18 -18 -18 -17 -17 -17 -17 -17 -17
-20 -20 -20 -20 -20 -20 -20 -20 -20 -20 -19 -19 -19 -19 -19 -19 -19 -19 -19 -19 -19 -19 -19 -19 -19 -18 -18 -18 -18 -18 -18 -18 -18 -18 -18 -18 -18 -18 -18 -18 -18 -18
-21 -20 -20 -20 -20 -20 -20 -20 -20 -20 -20 -20 -20 -20 -20 -20 -20 -19 -19 -19 -20 -20 -20 -20 -19 -19 -19 -19 -19 -19 -19 -19 -19 -19 -18 -18 -18 -18 -18 -18 -18 -18
Height
2998 2998 2998 2998 2998 2998 2998 2999 2999 2999 2999 3000 3000 3001 3002 3002 3003 3003 3004 3004 3005 3005 3006 3006 3006 3007 3007 3008 3008 3008 3009 3010 3011 3012 3012 3013 3014 3014 3015 3016 3017 3017
2996 2996 2996 2996 2996 2996 2996 2996 2996 2996 2996 2997 2997 2998 2998 2998 2999 2999 2999 3000 3000 3000 3001 3001 3001 3002 3002 3003 3003 3003 3004 3004 3005 3006 3006 3007 3008 3009 3010 3011 3011 3012
2993 2993 2993 2993 2993 2993 2993 2993 2993 2993 2993 2993 2993 2994 2994 2994 2994 2994 2994 2994 2995 2995 2995 2996 2996 2997 2997 2998 2998 2998 2998 2999 2999 3000 3001 3001 3002 3003 3004 3005 3006 3007
2990 2990 2990 2990 2990 2990 2990 2990 2989 2989 2989 2989 2989 2989 2989 2989 2989 2989 2989 2989 2989 2989 2990 2990 2991 2992 2992 2993 2993 2993 2993 2993 2994 2994 2995 2996 2996 2997 2998 2999 3000 3000
2986 2985 2986 2985 2985 2985 2985 2985 2985 2985 2985 2985 2985 2985 2985 2984 2984 2984 2984 2984 2984 2984 2985 2986 2986 2987 2987 2988 2988 2988 2988 2988 2989 2989 2989 2990 2991 2992 2992 2993 2993 2994
2981 2981 2981 2981 2981 2981 2981 2981 2981 2981 2981 2980 2980 2980 2980 2980 2980 2980 2980 2980 2980 2980 2981 2981 2982 2982 2982 2982 2983 2983 2983 2983 2983 2983 2984 2985 2985 2986 2987 2987 2988 2990
2977 2977 2977 2977 2977 2976 2976 2976 2976 2976 2976 2976 2976 2976 2976 2976 2976 2976 2976 2976 2976 2976 2977 2977 2977 2978 2978 2978 2978 2978 2978 2978 2978 2979 2979 2980 2981 2982 2983 2984 2984 2986
2973 2973 2973 2973 2973 2972 2972 2972 2972 2972 2972 2972 2972 2972 2972 2972 2972 2972 2972 2972 2972 2972 2972 2973 2973 2973 2973 2973 2973 2974 2974 2974 2975 2975 2976 2976 2977 2978 2979 2979 2980 2981
2970 2970 2970 2969 2969 2969 2969 2969 2968 2968 2968 2968 2968 2968 2968 2968 2967 2967 2967 2967 2968 2968 2968 2968 2968 2968 2968 2969 2969 2969 2969 2970 2970 2970 2971 2971 2972 2973 2974 2974 2974 2975
2967 2967 2967 2966 2966 2966 2966 2965 2965 2965 2965 2964 2964 2964 2964 2963 2963 2963 2963 2963 2963 2963 2963 2963 2963 2963 2963 2963 2964 2964 2964 2965 2965 2965 2965 2966 2966 2967 2967 2968 2968 2969
2964 2964 2963 2963 2963 2962 2962 2962 2961 2961 2961 2961 2960 2960 2960 2959 2959 2959 2958 2958 2958 2958 2958 2958 2958 2958 2958 2958 2958 2958 2958 2959 2959 2959 2960 2960 2960 2960 2961 2961 2962 2962
2960 2960 2959 2959 2959 2958 2958 2957 2957 2957 2956 2956 2956 2956 2955 2955 2955 2955 2954 2954 2953 2953 2953 2953 2952 2952 2952 2952 2952 2952 2953 2953 2953 2953 2953 2954 2954 2955 2955 2955 2955 2956
2956 2955 2955 2955 2954 2954 2953 2953 2952 2952 2952 2951 2951 2951 2950 2950 2950 2950 2950 2949 2949 2949 2948 2948 2948 2947 2947 2947 2947 2947 2947 2947 2947 2947 2947 2947 2948 2948 2949 2949 2950 2950
2952 2951 2951 2950 2950 2949 2949 2948 2948 2947 2947 2946 2946 2946 2945 2945 2945 2944 2944 2944 2944 2944 2943 2943 2943 2942 2942 2942 2942 2942 2942 2942 2942 2942 2942 2942 2942 2942 2943 2943 2944 2944
2947 2947 2946 2945 2945 2944 2944 2943 2943 2942 2942 2941 2941 2940 2940 2940 2939 2939 2939 2939 2938 2938 2938 2938 2937 2937 2937 2937 2937 2936 2937 2937 2937 2937 2937 2937 2937 2937 2938 2938 2938 2938
2943 2942 2942 2941 2940 2940 2939 2938 2938 2937 2937 2936 2935 2935 2935 2934 2934 2934 2933 2933 2933 2932 2932 2932 2932 2931 2931 2931 2931 2931 2931 2931 2931 2932 2932 2932 2932 2932 2932 2933 2933 2933
2937 2937 2936 2936 2935 2935 2934 2934 2933 2932 2932 2931 2930 2930 2929 2929 2928 2928 2927 2927 2927 2927 2926 2926 2926 2925 2925 2925 2925 2925 2925 2925 2925 2926 2926 2926 2926 2926 2927 2927 2927 2927
2932 2932 2931 2930 2930 2929 2929 2928 2928 2927 2926 2926 2925 2924 2923 2923 2922 2922 2921 2921 2921 2921 2920 2920 2920 2919 2919 2919 2919 2918 2918 2918 2919 2919 2919 2920 2920 2920 2920 2921 2921 2921
2926 2925 2925 2924 2924 2923 2922 2922 2921 2920 2920 2919 2919 2918 2917 2917 2916 2916 2915 2914 2914 2914 2914 2914 2913 2913 2913 2912 2912 2912 2911 2911 2911 2912 2912 2913 2913 2914 2914 2914 2915 2915
2920 2919 2918 2917 2916 2916 2915 2914 2914 2913 2913 2912 2912 2911 2910 2910 2909 2909 2908 2908 2907 2907 2907 2907 2906 2906 2906 2905 2905 2905 2904 2904 2904 2904 2904 2905 2906 2906 2907 2907 2907 2908
2914 2913 2912 2911 2910 2909 2908 2907 2906 2905 2905 2904 2904 2903 2903 2902 2902 2901 2901 2901 2900 2899 2899 2899 2899 2898 2898 2898 2898 2897 2897 2896 2896 2896 2896 2897 2897 2898 2898 2899 2899 2899
2907 2907 2905 2904 2903 2902 2901 2900 2899 2898 2897 2896 2896 2895 2895 2894 2894 2893 2893 2893 2892 2892 2891 2891 2891 2890 2890 2890 2890 2889 2888 2888 2888 2888 2888 2888 2888 2889 2889 2889 2890 2890
2900 2899 2898 2897 2896 2895 2894 2892 2891 2891 2890 2889 2888 2887 2887 2886 2885 2885 2885 2884 2884 2883 2883 2883 2883 2882 2881 2881 2881 2880 2879 2879 2879 2879 2879 2879 2879 2879 2880 2880 2881 2881
2893 2891 2890 2889 2888 2887 2886 2885 2884 2883 2882 2881 2879 2878 2878 2877 2876 2876 2876 2875 2874 2874 2874 2874 2874 2873 2873 2873 2872 2871 2870 2870 2870 2869 2869 2870 2870 2870 2871 2872 2872 2872
2885 2883 2882 2880 2879 2878 2877 2876 2875 2874 2873 2872 2871 2869 2868 2867 2866 2866 2866 2865 2864 2864 2863 2863 2864 2864 2863 2863 2863 2862 2861 2860 2860 2860 2860 2861 2861 2861 2861 2861 2862 2862
2876 2875 2873 2872 2870 2869 2868 2867 2865 2864 2863 2862 2861 2860 2859 2858 2857 2856 2856 2855 2854 2853 2853 2852 2852 2853 2853 2852 2852 2852 2850 2850 2849 2850 2850 2850 2850 2850 2850 2851 2851 2852
Wind_Speed
34 36 38 40 41 42 43 43 43 43 44 44 44 44 44 45 45 45 45 45 45 45 46 47 48 49 49 49 49 48 47 47 48 49 49 49 50 52 54 54 54 53
30 32 34 36 37 39 39 40 40 40 41 41 41 42 42 42 43 43 44 44 45 46 46 47 47 48 49 49 49 49 48 48 48 49 49 49 50 51 53 54 54 55
28 29 31 33 34 35 36 37 37 38 38 39 39 39 40 40 41 42 42 43 44 45 45 45 45 45 46 48 49 50 50 49 49 50 50 49 50 50 51 52 54 54
26 28 29 31 32 33 34 35 35 36 37 37 37 38 38 39 39 40 40 41 41 41 40 40 40 41 42 45 47 49 50 50 50 51 51 50 50 50 51 53 54 55
24 26 27 29 31 32 32 33 34 35 35 35 36 36 36 36 37 37 36 36 36 35 35 35 36 39 41 44 46 48 49 49 49 50 50 50 51 52 54 55 56 56
24 25 26 27 29 30 31 32 32 33 33 33 34 34 34 34 34 34 33 33 33 33 33 34 35 38 40 43 45 47 49 50 50 51 52 53 54 55 56 56 56 56
25 25 25 25 26 27 28 29 29 30 31 31 32 32 32 33 33 33 32 33 34 34 35 35 35 37 38 39 42 44 47 49 50 51 52 53 54 54 54 54 54 54
24 25 24 24 24 24 25 26 27 28 29 30 31 31 31 32 33 33 33 34 35 36 36 35 35 35 35 36 37 39 42 44 46 48 49 50 50 50 51 51 52 52
22 22 22 22 22 22 23 23 24 26 27 28 30 31 31 32 33 33 34 34 35 36 37 37 37 36 35 35 35 35 37 39 41 43 44 46 47 47 48 49 49 50
20 21 21 21 21 21 22 22 23 24 24 26 27 28 30 31 32 33 34 35 35 36 37 38 39 39 38 38 37 37 37 37 38 39 41 42 43 43 44 45 46 47
22 22 23 23 23 23 23 23 24 24 25 25 26 27 28 28 29 30 32 33 34 35 36 36 37 38 39 39 39 39 38 38 39 40 41 41 42 43 43 44 44 45
22 23 23 24 24 25 25 25 26 26 26 26 27 27 28 28 29 29 30 31 31 32 33 34 35 36 37 38 38 39 39 39 39 39 40 41 41 42 43 43 44 45
23 24 24 25 25 26 26 27 27 27 28 28 28 29 29 30 30 30 31 31 31 32 32 33 34 34 35 36 36 37 38 38 39 39 39 40 40 40 41 41 42 42
26 27 27 27 28 28 29 29 29 29 30 30 30 31 31 32 32 32 33 33 33 33 34 34 34 35 35 35 36 36 37 37 38 38 38 39 39 39 39 39 39 40
28 29 29 30 30 31 31 31 31 31 32 32 32 33 33 33 34 34 35 35 35 36 36 36 36 36 37 37 37 37 37 37 37 37 38 38 38 38 38 38 38 39
29 30 30 31 31 31 32 32 33 33 33 34 34 34 35 35 36 36 37 37 38 38 38 38 38 39 39 39 40 40 39 39 39 39 39 39 39 39 39 39 39 40
31 31 31 32 32 33 33 34 35 35 36 36 37 37 38 38 38 39 39 39 40 40 40 41 41 41 41 41 41 42 42 42 42 42 42 42 42 42 42 42 42 42
33 34 34 35 36 37 38 38 39 40 40 40 40 41 41 41 42 42 42 43 43 43 43 43 43 43 44 44 44 44 44 44 44 44 44 45 45 45 45 45 45 45
37 38 38 39 40 40 41 42 43 44 44 45 45 45 45 45 45 45 45 46 46 46 46 46 46 46 47 47 47 47 47 47 48 48 47 47 47 47 47 47 47 47
41 41 42 42 43 43 44 44 45 45 46 47 47 47 48 48 48 48 49 49 49 49 49 49 49 49 49 50 50 51 51 51 52 52 52 51 51 50 50 50 50 50
43 44 44 45 45 46 46 47 47 47 47 47 48 48 49 49 50 51 51 51 52 52 52 52 52 52 52 52 53 53 54 55 55 56 56 56 55 55 55 54 54 54
45 45 45 46 46 47 48 48 48 48 48 49 49 49 49 50 50 51 52 52 53 54 54 54 54 54 55 55 55 55 56 57 57 58 59 59 59 59 59 59 59 58
45 45 46 46 47 48 49 50 50 50 51 51 52 52 52 52 53 53 53 54 54 54 55 55 56 56 56 57 57 57 58 58 59 60 60 61 61 62 62 62 61 61
47 48 49 49 50 51 52 52 53 54 54 55 56 56 57 57 57 57 57 57 57 57 58 58 58 58 59 59 59 60 60 61 61 61 62 62 63 63 63 62 62 62
51 52 53 54 55 55 56 56 57 57 58 58 59 59 60 60 61 61 60 60 60 60 60 60 60 60 60 61 61 62 63 63 64 64 64 64 64 64 63 63 63 63
56 57 58 59 59 59 59 59 59 59 59 59 59 59 59 59 60 60 60 60 59 59 59 59 59 59 59 60 60 61 62 63 64 65 65 65 65 66 66 66 66 65
Wind_Direction
243 243 243 243 243 244 244 245 246 247 248 249 250 251 251 251 252 252 253 253 253 253 252 252 251 251 252 254 254 253 251 249 249 250 250 251 250 248 246 245 242 240
249 248 247 247 247 247 247 248 249 250 251 252 254 255 255 256 257 257 258 258 257 256 255 254 253 251 250 252 253 253 252 250 248 249 249 251 251 251 251 250 248 245
251 251 252 252 252 252 252 252 253 254 255 256 257 258 259 260 261 261 262 262 261 261 260 258 256 253 252 251 251 252 252 250 248 248 248 249 251 251 251 251 251 249
250 251 252 254 255 256 256 257 257 258 258 259 260 260 261 262 262 263 264 264 265 265 263 261 258 255 253 252 252 252 251 250 248 247 247 248 249 251 251 251 250 249
256 254 254 254 255 256 257 258 259 260 261 261 262 263 263 264 264 265 267 267 267 267 265 263 259 255 253 252 251 251 250 248 248 247 248 249 250 250 250 250 249 248
265 261 259 257 257 257 258 259 259 260 261 262 263 263 264 265 266 267 268 267 266 265 263 260 257 254 252 251 250 248 246 245 245 245 246 248 248 248 248 248 248 249
268 266 263 261 259 259 259 259 260 260 261 261 262 262 263 264 265 266 266 265 263 262 259 257 254 253 252 251 250 248 247 245 244 245 246 247 248 248 249 250 251 252
266 265 264 262 261 260 260 260 260 260 261 261 261 261 262 262 262 264 264 263 262 261 260 258 256 255 253 252 251 251 250 250 249 249 250 250 252 252 253 254 254 254
262 262 262 262 261 260 260 260 260 260 260 260 261 260 261 261 261 261 261 261 261 262 262 262 262 260 258 256 253 251 251 251 251 251 252 252 253 253 253 254 254 254
263 263 262 263 263 262 263 262 261 261 261 261 261 260 260 260 260 260 260 260 260 260 261 262 263 263 263 262 260 257 254 252 251 251 251 251 252 252 252 252 252 253
267 267 266 267 267 267 266 265 264 264 263 263 262 262 261 261 260 260 260 260 260 261 261 261 261 262 263 264 264 263 261 259 256 254 253 252 252 252 252 252 252 252
271 271 270 270 269 269 269 268 268 267 267 266 265 265 264 264 263 262 261 261 261 261 261 261 262 262 262 263 263 264 264 263 262 261 259 258 256 255 254 253 252 252
276 275 275 275 274 273 272 272 271 271 270 270 269 269 269 268 268 267 266 265 264 263 263 262 262 262 261 261 262 262 263 263 263 263 263 263 262 261 259 258 257 255
278 279 278 278 277 277 276 275 274 273 273 272 272 271 271 271 270 270 269 269 268 267 266 265 264 264 263 262 261 261 261 261 262 262 262 263 263 263 262 262 261 260
279 279 279 278 278 278 277 276 275 275 274 274 273 273 273 272 272 271 271 271 270 269 268 267 267 266 265 264 263 262 261 261 260 260 260 260 260 260 260 260 260 260
278 278 277 277 277 276 276 276 276 276 276 275 275 275 274 274 273 273 272 272 272 271 271 270 269 268 267 266 265 265 263 262 261 260 259 259 259 258 258 258 258 258
278 278 277 277 277 276 276 276 276 276 276 276 275 275 275 274 274 273 272 272 271 271 271 271 270 269 268 267 267 266 265 264 263 262 261 260 259 259 258 258 258 257
278 277 277 276 276 276 275 275 275 275 274 274 273 273 273 272 272 272 271 271 270 270 270 269 270 270 269 269 268 267 266 265 264 263 262 261 260 260 259 259 259 259
280 279 279 278 277 276 275 274 273 273 273 272 271 271 270 270 269 269 269 269 269 268 268 268 268 268 268 268 268 268 267 267 266 265 263 262 261 261 260 260 260 259
281 281 281 280 279 278 277 276 275 273 272 271 270 269 269 269 268 268 268 268 268 268 267 267 267 267 266 266 267 267 267 267 267 267 266 265 264 263 262 261 261 260
280 280 279 279 279 278 278 277 276 276 274 273 272 271 270 269 269 268 268 268 268 268 267 267 267 267 267 266 266 266 266 266 266 266 266 266 266 265 265 264 263 262
278 277 277 277 277 277 277 277 276 276 276 276 275 274 273 272 271 270 269 269 268 268 268 268 268 268 268 268 267 267 266 266 266 266 266 266 266 266 266 265 265 265
279 278 278 277 277 277 277 277 277 277 277 277 277 276 276 275 274 273 272 271 270 270 269 269 269 269 269 269 269 268 268 267 267 266 266 266 266 265 265 266 266 266
283 283 283 282 281 280 280 280 279 279 279 279 279 278 278 277 276 276 275 274 273 272 271 270 269 269 269 269 269 269 268 268 268 267 267 267 266 266 266 266 266 266
287 287 286 285 285 284 283 283 282 281 281 280 279 279 278 278 278 277 277 276 275 274 273 272 271 270 269 268 268 268 268 267 267 267 267 267 267 267 266 266 265 265
289 289 288 287 286 286 285 285 284 284 283 282 281 280 279 278 278 277 277 276 276 276 275 274 273 272 270 269 268 267 267 267 266 266 266 266 266 266 266 265 265 265